Location: Marcé
(47.5801°N, 0.3280°W)
Time: 23:07:59
(UTC+01:00)

Transit 2A - Pass Details

Date: 02 December 2021
Orbit: 591 x 967 km, 66.7° (Epoch: 16 January)

Event Time Altitude Azimuth Distance (km) Brightness Sun altitude
Rises 09:27:23 0° 326° (NW) 3,651 8.8 6.8°
Reaches altitude 10° 09:30:00 10° 330° (NNW) 2,713 8.3 7.1°
Maximum altitude 09:36:21 59° 50° (NE) 1,099 7.0 7.9°
Drops below altitude 10° 09:42:29 10° 130° (SE) 2,629 11.6 8.6°
Sets 09:44:59 0° 134° (SE) 3,530 11.9 8.9°
